Regional Weather Roundup
Issued by NWS

Home | Current Version | Previous Version | Graphics & Text | Print | Product List | Glossary On
Versions: 1 2 3 4 5 6 7 8 9 10 11 12 13 14 15 16 17 18 19 20 21 22 23 24 25 26 27 28 29 30 31 32 33 34 35 36 37 38 39 40 41 42 43 44 45 46 47 48 49 50
000
ASUS43 KFSD 241910
RWRSD

WEATHER ROUNDUP FOR SOUTH DAKOTA
NATIONAL WEATHER SERVICE SIOUX FALLS SD
100 PM CST SAT JAN 24 2015

NOTE: "FAIR" INDICATES FEW OR NO CLOUDS BELOW 12,000 FEET WITH NO
SIGNIFICANT WEATHER AND/OR OBSTRUCTIONS TO VISIBILITY.


SDZ001>005-009-010-012>017-242000-
NORTHWEST AND NORTH CENTRAL SOUTH DAKOTA

CITY           SKY/WX    TMP DP  RH WIND       PRES   REMARKS
BUFFALO          N/A     49  36  61 NW43G64   29.64S
FAITH            N/A     54  32  43 NW35G45   29.65F
MOBRIDGE       CLOUDY    47  39  74 W9        29.58F
$$

SDZ012>016-024>037-041>051-057-063-072>074-242000-
SOUTHWEST AND SOUTH CENTRAL SOUTH DAKOTA

CITY           SKY/WX    TMP DP  RH WIND       PRES   REMARKS
RAPID CTY ARPT PTSUNNY   56  35  45 NW40G53   29.75F
PIERRE         CLOUDY    48  32  53 W15       29.64F
CUSTER         MOSUNNY   42  32  67 NW17G36   29.83F
ELLSWORTH AFB  PTSUNNY   56  36  47 NW36G48   29.72F
PHILIP         CLOUDY    53  37  54 W22G28    29.71F
PINE RIDGE     LGT RAIN  42  29  59 W7        29.85F
WINNER         CLOUDY    52  29  41 W17       29.71F
$$

SDZ004>011-016>023-039-040-242000-
NORTHEAST SOUTH DAKOTA

CITY           SKY/WX    TMP DP  RH WIND       PRES   REMARKS
ABERDEEN       CLOUDY    39  34  82 S3        29.61F
WATERTOWN      CLOUDY    36  31  82 W9        29.60F
SISSETON         N/A     37  32  82 NW8       29.59F
$$

SDZ017-020-022-023-036>040-048>070-242000-
SOUTHEAST SOUTH DAKOTA

CITY           SKY/WX    TMP DP  RH WIND       PRES   REMARKS
SIOUX FALLS    CLOUDY    40  31  70 W9        29.65F
HURON          CLOUDY    44  34  67 W7        29.63F
CHAMBERLAIN    CLOUDY    45  32  61 W12       29.68F
MITCHELL       CLOUDY    44  32  62 W12       29.67F
YANKTON        CLOUDY    45  30  57 W16       29.69F
$$

ABBREVIATIONS USED IN REMARKS
   TC - TEMPERATURE IN CELSIUS
  WCI - WIND CHILL INDEX
   HX - HEAT INDEX
  VSB - VISIBILITY




USA.gov is the U.S. government's official web portal to all federal, state and local government web resources and services.